Weather History for Goderich, ON

Change the Weather History Date:

Thursday, October 18, 2012

  Actual Average Record
Temperature  
Mean Temperature 56 °F -  
Max Temperature 61 °F - - ()
Min Temperature 50 °F - - ()
Degree Days  
Heating Degree Days 10    
Growing Degree Days 6 (Base 50)    
Moisture  
Dew Point 46 °F    
Average Humidity 67    
Maximum Humidity 92    
Minimum Humidity 49    
Precipitation  
Precipitation 0.03 in - - ()
Sea Level Pressure  
Sea Level Pressure 29.57 in    
Wind  
Wind Speed 14 mph ()    
Max Wind Speed 21 mph    
Max Gust Speed 33 mph    
T = Trace of Precipitation, MM = Missing Value Source: Averaged Metar Reports

Daily Weather History Graph

Daily Weather History Graph

Search for Another Location

Airport:

Trip Planner

Search our weather history database for the weather conditions in past years. The results will help you decide how hot, cold, wet, or windy it might be!

Date:

Astronomy

Oct. 18, 2012 Rise Set
Actual Time 7:45 AM EDT 6:37 PM EDT
Civil Twilight 7:16 AM EDT 7:06 PM EDT
Nautical Twilight 6:42 AM EDT 7:40 PM EDT
Astronomical Twilight 6:09 AM EDT 8:13 PM EDT
Moon 11:32 AM EDT (10/18) 9:03 PM EDT (10/18)
Length of Visible Light 11h 50m
Length of Day
10h 52m
Waxing Crescent, 14% of the Moon is Illuminated
Oct 18
Waxing Crescent
Oct 21
First Quarter
Oct 29
Full
Nov 6
Last Quarter
Nov 13
New

Hourly Weather History & Observations

Time (EDT) Temp. Dew Point Humidity Pressure Visibility Wind Dir Wind Speed Gust Speed Precip Events Conditions
12:00 AM 61.5 °F 48.0 °F 61% 29.62 in - SSE 15.0 mph 21.9 mph N/A   Unknown
1:00 AM 62.4 °F 48.0 °F 59% 29.59 in - SSE 16.1 mph 25.3 mph N/A   Unknown
2:00 AM 62 °F 48 °F 49% 29.58 in - SE 15.0 mph - -  
3:00 AM 61.2 °F 46.6 °F 59% 29.57 in - SE 12.7 mph 20.7 mph N/A   Unknown
4:00 AM 61.0 °F 44.6 °F 55% 29.56 in - SE 15.0 mph 20.7 mph N/A   Unknown
5:00 AM 59.5 °F 42.6 °F 54% 29.54 in - SE 17.3 mph 26.5 mph N/A   Unknown
6:00 AM 58.6 °F 42.1 °F 54% 29.51 in - SE 17.3 mph 25.3 mph N/A   Unknown
7:00 AM 57.0 °F 42.6 °F 59% 29.50 in - SE 17.3 mph 25.3 mph N/A   Unknown
8:00 AM 57 °F 43 °F 50% 29.49 in - SE 20.7 mph - -  
8:00 AM 56.8 °F 43.3 °F 61% 29.49 in - SE 20.7 mph 29.9 mph N/A   Unknown
9:00 AM 57.2 °F 44.6 °F 63% 29.49 in - SE 18.4 mph 27.6 mph N/A   Unknown
10:00 AM 60.3 °F 45.9 °F 59% 29.47 in - SE 19.6 mph 32.2 mph N/A   Unknown
11:00 AM 60.4 °F 46.2 °F 59% 29.48 in - SSE 18.4 mph 27.6 mph N/A   Unknown
12:00 PM 60.3 °F 47.7 °F 63% 29.49 in - SSE 19.6 mph 33.4 mph N/A   Unknown
1:00 PM 60.4 °F 49.5 °F 67% 29.47 in - SE 17.3 mph 27.6 mph N/A   Unknown
2:00 PM 53 °F 51 °F 91% 29.52 in - SSW 15.0 mph - -  
2:00 PM 53.4 °F 51.1 °F 92% 29.52 in - SSW 15.0 mph 26.5 mph 0.03 in   Unknown
3:00 PM 52.7 °F 47.5 °F 82% 29.57 in - South 15.0 mph 23.0 mph N/A   Unknown
4:00 PM 53.1 °F 46.0 °F 77% 29.60 in - South 16.1 mph 23.0 mph N/A   Unknown
5:00 PM 55.0 °F 46.2 °F 72% 29.60 in - South 9.2 mph - N/A   Unknown
6:00 PM 54.5 °F 43.5 °F 66% 29.64 in - South 11.5 mph - N/A   Unknown
7:00 PM 52.0 °F 43.7 °F 73% 29.65 in - SSE 5.8 mph - N/A   Unknown
8:00 PM 51 °F 44 °F 71% 29.68 in - SE 6.9 mph - -  
8:00 PM 50.7 °F 44.4 °F 79% 29.68 in - SE 6.9 mph - N/A   Unknown
9:00 PM 50.4 °F 44.8 °F 81% 29.70 in - SE 10.4 mph - N/A   Unknown
10:00 PM 50.5 °F 45.3 °F 82% 29.71 in - SE 10.4 mph - N/A   Unknown
11:00 PM 50.0 °F 45.1 °F 83% 29.71 in - SE 10.4 mph - N/A   Unknown